Flag for U.S.A. Weather past 2 weeks in Mansfield, Texas, U.S.A.

Now
82 °F

Partly sunny.


Feels Like: 83 °F
Forecast: 61 / 78 °F
Wind: 15 mph from South

Location: Burleson-Rendon

Current Time: May 5, 2015 at 5:31:04 PM

Latest Report: May 5, 2015 at 4:55 PM


Visibility: 10 mi

Pressure: 29.90 "Hg

Humidity: 51%

Dew point: 63 °F

Location of MansfieldLocation

Historic Weather in Mansfield — Graph

°F

Mansfield temperature yesterday

Maximum temperature yesterday: 82 °F (at 1:48 PM)
Minimum temperature yesterday: 64 °F (at 6:50 AM)
Average temperature yesterday: 70 °F

Past Weeks' High & Low Weather Summary

 TemperatureHumidityPressure
High86 °F (Apr 25, 4:50 PM)100% (Apr 24, 6:51 AM)30.13 "Hg (Apr 24, 6:51 AM)
Low45 °F (Apr 29, 5:55 AM)27% (Apr 25, 4:50 PM)29.56 "Hg (Apr 26, 6:55 PM)
Average64 °F76%29.93 "Hg
* Reported Apr 20 3:46 PM — May 5 3:50 PM, Mansfield, Weather by CustomWeather, © 2015

Note: Actual official high and low records may vary slightly from our data, if they occured in-between our weather recording intervals... More about our weather records

Advertising

Mansfield weather history for previous 24 hours

 ConditionsComfort  
Time TempWeatherWind HumidityBarometerVisibility
3:50 PM
Tue, May 5
82 °FPartly sunny.16 mph48%29.92 "Hg10 mi
2:50 PM82 °FBroken clouds.16 mph48%29.95 "Hg10 mi
1:50 PM79 °FBroken clouds.22 mph58%29.97 "Hg10 mi
12:47 PM77 °FMore clouds than sun.22 mph61%30.02 "Hg10 mi
11:48 AM75 °FBroken clouds.16 mph65%30.04 "Hg10 mi
10:47 AM72 °FCloudy.14 mph73%30.05 "Hg10 mi
9:59 AM70 °FBroken clouds.14 mph78%30.04 "Hg10 mi
8:52 AM66 °FBroken clouds.8 mph83%30.04 "Hg7 mi
7:49 AM63 °FPartly sunny.13 mph88%30.04 "Hg7 mi
6:52 AM63 °FPassing clouds.12 mph83%30.02 "Hg20 mi
6:35 AM61 °FPassing clouds.5 mph89%30.02 "Hg10 mi
6:15 AM60 °FClear.No wind88%30.02 "Hg7 mi
5:55 AM60 °FClear.No wind88%30.02 "Hg7 mi
5:35 AM60 °FClear.No wind86%30.02 "Hg7 mi
5:15 AM61 °FClear.3 mph84%30.02 "Hg7 mi
4:55 AM61 °FClear.6 mph83%30.02 "Hg7 mi
4:35 AM61 °FClear.6 mph83%30.02 "Hg7 mi
4:15 AM61 °FClear.6 mph82%30.02 "Hg7 mi
3:55 AM61 °FClear.6 mph83%30.02 "Hg10 mi
3:35 AM62 °FClear.6 mph80%30.02 "Hg5 mi
3:15 AM63 °FClear.5 mph78%30.02 "Hg10 mi
2:55 AM63 °FClear.6 mph77%30.02 "Hg10 mi
2:35 AM63 °FClear.6 mph75%30.03 "Hg10 mi
2:15 AM65 °FClear.7 mph71%30.04 "Hg10 mi
1:55 AM66 °FClear.8 mph67%30.04 "Hg10 mi
1:35 AM67 °FClear.8 mph65%30.04 "Hg10 mi
1:15 AM67 °FClear.8 mph64%30.04 "Hg10 mi
12:55 AM68 °FClear.10 mph62%30.03 "Hg10 mi
12:35 AM67 °FClear.10 mph61%30.03 "Hg10 mi
12:15 AM67 °FClear.12 mph60%30.02 "Hg10 mi
11:55 PM
Mon, May 4
67 °FClear.10 mph59%30.03 "Hg10 mi
11:35 PM68 °FClear.10 mph57%30.03 "Hg10 mi
11:15 PM68 °FClear.9 mph55%30.04 "Hg10 mi
10:15 PM69 °FClear.8 mph51%30.04 "Hg10 mi
9:55 PM70 °FClear.8 mph50%30.04 "Hg10 mi
9:35 PM70 °FClear.7 mph50%30.03 "Hg7 mi
9:15 PM71 °FClear.8 mph51%30.02 "Hg7 mi
8:55 PM72 °FSunny.8 mph51%30.02 "Hg7 mi
8:35 PM73 °FSunny.9 mph52%30.00 "Hg7 mi
8:15 PM75 °FSunny.12 mph52%30.00 "Hg10 mi
6:55 PM79 °FPassing clouds.17 mph48%30.00 "Hg10 mi
5:46 PM82 °FPassing clouds.15 mph45%30.02 "Hg10 mi
Weather by CustomWeather, © 2015

See weather overviewHow to use our weather pages